This demonstration page uses our WeatherBlox Daily Observations layout. Learn more.

39.01783, -85.05884

Hourly Observations for July 15, 2019

Temp ( °F °C ) Dew Point ( °F °C ) Humidity (%) Winds ( mph kmh ) Pressure ( in mb ) Visibility ( mi km ) Precip ( " mm )
12:52 am 00:52 Partly Cloudy 76 24.4 66 18.9 72 72 NW 5 7 30.06 1018 10 16.09344 0 0
1:52 am 01:52 Mostly Cloudy 74 23.3 65 18.3 74 74 NNW 5 7 30.09 1019 10 16.09344 0 0
2:52 am 02:52 Mostly Cloudy 73 22.8 65 18.3 76 76 Calm 30.06 1018 10 16.09344 0 0
3:52 am 03:52 Mostly Cloudy 71 21.7 65 18.3 81 81 Calm 30.06 1018 10 16.09344 0 0
4:52 am 04:52 Cloudy 71 21.7 65 18.3 81 81 Calm 30.06 1018 10 16.09344 0 0
5:52 am 05:52 Mostly Cloudy 71 21.7 66 18.9 84 84 Calm 30.09 1019 10 16.09344 0 0
6:52 am 06:52 Mostly Cloudy 72 22.2 68 20 87 87 Calm 30.09 1019 9 14.484096 0 0
7:52 am 07:52 Mostly Cloudy 76 24.4 69 20.6 79 79 Calm 30.09 1019 10 16.09344 0 0
8:52 am 08:52 Mostly Cloudy 79 26.1 69 20.6 72 72 WNW 6 9 30.09 1019 10 16.09344 0 0
9:52 am 09:52 Mostly Cloudy 80 26.7 69 20.6 69 69 NNW 6 9 30.09 1019 10 16.09344 0 0
10:52 am 10:52 Mostly Cloudy 84 28.9 70 21.1 63 63 NE 5 7 30.09 1019 10 16.09344 0.001 0.001
11:52 am 11:52 Mostly Cloudy 88 31.1 69 20.6 54 54 VRB 3 6 30.09 1019 10 16.09344 0 0
12:52 pm 12:52 Mostly Cloudy 88 31.1 68 20 52 52 Calm 30.09 1019 10 16.09344 0 0
1:52 pm 13:52 Mostly Cloudy 89 31.7 69 20.6 52 52 WSW 8 13 30.06 1018 10 16.09344 0 0
2:35 pm 14:35 Mostly Cloudy with Thunderstorms 90 32.2 69 20.6 50 50 SSW 10 17 30.03 1017 10 16.09344 0 0
2:52 pm 14:52 Mostly Cloudy with Thunderstorms 89 31.7 67 19.4 48 48 VRB 3 6 30.06 1018 10 16.09344 0 0
3:09 pm 15:09 Mostly Cloudy 89 31.7 67 19.4 48 48 ESE 13 20 30.03 1017 10 16.09344 0 0
3:52 pm 15:52 Cloudy 88 31.1 65 18.3 46 46 E 9 15 30.03 1017 10 16.09344 0 0
4:13 pm 16:13 Cloudy with Thunderstorms 85 29.4 67 19.4 55 55 SE 7 11 30.03 1017 10 16.09344 0 0
4:36 pm 16:36 Windy with Storms Likely 76 24.4 69 20.6 79 79 SSE 28 44 30.09 1019 2 3.218688 0.001 0.001
4:47 pm 16:47 Windy with Storms Likely 73 23 70 21 89 89 SE 31 50 30.09 1019 2 3.218688 0.001 0.001
4:52 pm 16:52 Windy with Storms Likely 73 22.8 70 21.1 90 90 SE 25 41 30.09 1019 2 3.218688 0.001 0.001
5:23 pm 17:23 Cloudy with Thunderstorms 72 22.2 69 20.6 91 91 ENE 15 24 30.15 1021 2 3.218688 0.02 0.508
5:31 pm 17:31 Cloudy with Heavy Thunderstorms 72 22.2 68 20 87 87 ENE 14 22 30.15 1021 1.5 2.414016 0.06 1.524
5:52 pm 17:52 Cloudy with Heavy Thunderstorms 71 21.7 68 20 90 90 ENE 15 24 30.12 1020 2 3.218688 0.5 12.7
6:06 pm 18:06 Cloudy with Light Rain 72 22.2 68 20 87 87 ENE 16 26 30.12 1020 6 9.656064 0.03 0.762
6:52 pm 18:52 Cloudy with Light Rain 75 23.9 67 19.4 76 76 NE 8 13 30.06 1018 10 16.09344 0.03 0.762
7:52 pm 19:52 Cloudy 74 23.3 69 20.6 85 85 SW 3 6 30.06 1018 10 16.09344 0.001 0.001
8:52 pm 20:52 Cloudy 73 22.8 69 20.6 87 87 SSW 6 9 30.03 1017 10 16.09344 0 0
9:52 pm 21:52 Cloudy 72 22.2 69 20.6 91 91 S 6 9 30.03 1017 10 16.09344 0 0
10:52 pm 22:52 Cloudy 73 22.8 69 20.6 87 87 S 6 9 30.03 1017 10 16.09344 0 0
11:52 pm 23:52 Cloudy 73 22.8 70 21.1 90 90 S 5 7 30.03 1017 10 16.09344 0 0

Powered by AerisWeather